CW4869 Weather Reports


time (UTC)temp
C
wind
direction
speed
KPH
gust
KPH
rain 1hr
cm
rain 24hr
cm
rain mn
cm
humidity
%
barometer
mb
20260510180037 13 245 17.7 24.1 0.00 0.00 0.00 53 1015.1
20260510175527 12 252 19.3 27.4 0.00 0.00 0.00 52 1015.1
20260510175037 12 259 22.5 27.4 0.00 0.00 0.00 53 1015.0
20260510174610 12 247 20.9 25.7 0.00 0.00 0.00 52 1015.0
20260510174029 12 253 16.1 24.1 0.00 0.00 0.00 50 1015.1
20260510173600 13 244 17.7 25.7 0.00 0.00 0.00 53 1015.1
20260510173056 14 253 22.5 25.7 0.00 0.00 0.00 52 1015.1
20260510172542 13 250 17.7 27.4 0.00 0.00 0.00 50 1015.2
20260510172030 13 251 22.5 27.4 0.00 0.00 0.00 53 1015.3
20260510171540 13 250 20.9 30.6 0.00 0.00 0.00 51 1015.3
20260510171045 13 256 25.7 30.6 0.00 0.00 0.00 51 1015.4
20260510170529 13 254 22.5 32.2 0.00 0.00 0.00 50 1015.4
20260510170037 13 251 24.1 32.2 0.00 0.00 0.00 51 1015.4
20260510165551 13 260 20.9 32.2 0.00 0.00 0.00 46 1015.5
20260510165037 13 248 25.7 33.8 0.00 0.00 0.00 49 1015.4
20260510164529 13 248 22.5 33.8 0.00 0.00 0.00 49 1015.4
20260510164040 13 264 22.5 32.2 0.00 0.00 0.00 52 1015.4
20260510163559 13 264 22.5 30.6 0.00 0.00 0.00 54 1015.5
20260510163028 13 258 17.7 29.0 0.00 0.00 0.00 52 1015.4
20260510162537 13 249 20.9 30.6 0.00 0.00 0.00 54 1015.4
20260510162132 12 253 24.1 32.2 0.00 0.00 0.00 54 1015.4
20260510161524 13 241 20.9 33.8 0.00 0.00 0.00 52 1015.3
20260510161037 12 274 19.3 33.8 0.00 0.00 0.00 52 1015.3
20260510160523 12 257 19.3 27.4 0.00 0.00 0.00 53 1015.3
20260510160030 12 255 22.5 27.4 0.00 0.00 0.00 56 1015.3
20260510155521 12 254 19.3 29.0 0.00 0.00 0.00 52 1015.3
20260510155034 12 249 22.5 29.0 0.00 0.00 0.00 56 1015.3
20260510154535 12 262 20.9 29.0 0.00 0.00 0.00 59 1015.3
20260510154027 12 255 22.5 27.4 0.00 0.00 0.00 58 1015.3
20260510153535 11 260 20.9 24.1 0.00 0.00 0.00 57 1015.3
20260510153023 11 248 20.9 27.4 0.00 0.00 0.00 60 1015.3
20260510152528 11 256 20.9 27.4 0.00 0.00 0.00 59 1015.2
20260510152041 12 258 20.9 30.6 0.00 0.00 0.00 60 1015.2
20260510151554 12 254 22.5 30.6 0.00 0.00 0.00 60 1015.2
20260510151039 11 261 19.3 29.0 0.00 0.00 0.00 58 1015.1
20260510150554 11 279 20.9 29.0 0.00 0.00 0.00 57 1015.1
20260510150041 11 257 20.9 29.0 0.00 0.00 0.00 55 1015.0
20260510145553 11 265 22.5 29.0 0.00 0.00 0.00 57 1015.0
20260510145038 11 258 17.7 29.0 0.00 0.00 0.00 56 1014.9
20260510144527 11 252 17.7 24.1 0.00 0.00 0.00 57 1014.9
20260510144039 11 254 16.1 24.1 0.00 0.00 0.00 59 1014.7
20260510143530 11 281 16.1 22.5 0.00 0.00 0.00 57 1014.7
20260510143040 10 271 9.7 22.5 0.00 0.00 0.00 57 1014.7
20260510142524 10 296 8.0 22.5 0.00 0.00 0.00 59 1014.7
20260510142054 10 259 9.7 20.9 0.00 0.00 0.00 57 1014.7
20260510141539 10 253 11.3 20.9 0.00 0.00 0.00 60 1014.6
20260510141029 10 318 9.7 19.3 0.00 0.00 0.00 61 1014.6
20260510140531 10 292 8.0 17.7 0.00 0.00 0.00 62 1014.7
20260510140035 10 328 8.0 24.1 0.00 0.00 0.00 61 1014.6
20260510135521 10 240 14.5 25.7 0.00 0.00 0.00 62 1014.6
20260510135025 10 271 16.1 25.7 0.00 0.00 0.00 62 1014.6
20260510134535 10 300 11.3 27.4 0.00 0.00 0.00 61 1014.6
20260510134045 10 255 14.5 27.4 0.00 0.00 0.00 62 1014.6
20260510133530 10 253 11.3 22.5 0.00 0.00 0.00 63 1014.5
20260510133040 10 306 8.0 25.7 0.00 0.00 0.00 61 1014.6
20260510132528 9 302 11.3 25.7 0.00 0.00 0.00 61 1014.5
20260510132039 9 286 9.7 24.1 0.00 0.00 0.00 61 1014.5
20260510131523 10 265 9.7 20.9 0.00 0.00 0.00 61 1014.5
20260510131051 9 256 8.0 16.1 0.00 0.00 0.00 61 1014.4
20260510130556 9 321 4.8 17.7 0.00 0.00 0.00 63 1014.4
20260510130026 8 327 6.4 17.7 0.00 0.00 0.00 64 1014.5
20260510125558 8 344 8.0 17.7 0.00 0.00 0.00 63 1014.4
20260510125029 8 325 8.0 17.7 0.00 0.00 0.00 64 1014.4
20260510124533 8 314 8.0 16.1 0.00 0.00 0.00 66 1014.2
20260510124050 8 6 4.8 17.7 0.00 0.00 0.00 65 1014.3
20260510123537 8 263 9.7 17.7 0.00 0.00 0.00 66 1014.1
20260510123025 8 344 9.7 19.3 0.00 0.00 0.00 67 1014.0
20260510122534 8 322 9.7 19.3 0.00 0.00 0.00 65 1014.0
20260510122037 8 1 8.0 16.1 0.00 0.00 0.00 64 1013.9
20260510121547 8 299 8.0 14.5 0.00 0.00 0.00 64 1013.9
20260510121038 8 281 6.4 12.9 0.00 0.00 0.00 65 1013.8
20260510120526 7 276 8.0 16.1 0.00 0.00 0.00 67 1013.8
20260510120039 7 334 9.7 16.1 0.00 0.00 0.00 67 1013.8
20260510115522 7 310 4.8 16.1 0.00 0.00 0.00 67 1013.6
20260510115038 7 259 6.4 14.5 0.00 0.00 0.00 67 1013.5
20260510114544 7 278 8.0 16.1 0.00 0.00 0.00 66 1013.5
20260510114032 7 297 8.0 16.1 0.00 0.00 0.00 65 1013.5
20260510113540 7 253 8.0 16.1 0.00 0.00 0.00 65 1013.4
20260510113041 7 290 9.7 16.1 0.00 0.00 0.00 63 1013.3
20260510112526 7 269 6.4 14.5 0.00 0.00 0.00 66 1013.2
20260510112041 7 333 6.4 11.3 0.00 0.00 0.00 66 1013.1
20260510111529 7 331 6.4 11.3 0.00 0.00 0.00 67 1013.0
20260510111041 7 295 4.8 11.3 0.00 0.00 0.00 66 1012.8
20260510110522 7 269 3.2 14.5 0.00 0.00 0.00 67 1012.7
20260510110026 7 302 4.8 11.3 0.00 0.00 0.00 66 1012.7
20260510105523 7 314 4.8 11.3 0.00 0.00 0.00 66 1012.7
20260510105033 7 326 4.8 12.9 0.00 0.00 0.00 66 1012.6
20260510104540 7 308 6.4 12.9 0.00 0.00 0.00 67 1012.4
20260510104035 7 257 4.8 11.3 0.00 0.00 0.00 67 1012.3
20260510103521 7 317 4.8 12.9 0.00 0.00 0.00 67 1012.3
20260510103032 7 320 4.8 12.9 0.00 0.00 0.00 66 1012.3
20260510102537 7 296 4.8 12.9 0.00 0.00 0.00 67 1012.2
20260510102028 7 293 4.8 14.5 0.00 0.00 0.00 67 1012.2
20260510101532 7 301 6.4 14.5 0.00 0.00 0.00 67 1012.1
20260510101028 7 303 4.8 12.9 0.00 0.00 0.00 67 1012.1
20260510100040 7 306 6.4 12.9 0.00 0.00 0.00 67 1012.1
20260510095528 7 331 4.8 12.9 0.00 0.00 0.00 67 1012.0
20260510095042 7 303 4.8 11.3 0.00 0.00 0.00 66 1012.0
20260510094531 7 293 4.8 11.3 0.00 0.00 0.00 66 1012.0
20260510094037 7 315 4.8 11.3 0.00 0.00 0.00 66 1011.8
20260510093526 7 314 4.8 12.9 0.00 0.00 0.00 65 1011.7
20260510093036 7 328 6.4 12.9 0.00 0.00 0.00 66 1011.7
20260510092539 7 331 4.8 11.3 0.00 0.00 0.00 67 1011.6
20260510092055 7 314 4.8 12.9 0.00 0.00 0.00 67 1011.6
20260510091521 7 303 4.8 11.3 0.00 0.00 0.00 67 1011.6
20260510091059 7 314 6.4 11.3 0.00 0.00 0.00 66 1011.5
20260510090552 7 307 6.4 12.9 0.00 0.00 0.00 65 1011.5
20260510090107 7 326 6.4 12.9 0.00 0.00 0.00 65 1011.3
20260510085540 7 304 6.4 12.9 0.00 0.00 0.00 66 1011.2
20260510085033 7 354 8.0 14.5 0.00 0.00 0.00 65 1011.2
20260510084540 7 105 4.8 14.5 0.00 0.00 0.00 65 1011.2
20260510083530 7 315 4.8 14.5 0.00 0.00 0.00 66 1011.1
20260510083041 7 316 6.4 17.7 0.00 0.00 0.00 65 1011.0
20260510082530 7 314 8.0 19.3 0.00 0.00 0.00 64 1010.9
20260510082035 7 337 6.4 19.3 0.00 0.00 0.00 66 1010.9
20260510081524 7 348 9.7 19.3 0.00 0.00 0.00 63 1010.8
20260510081037 7 254 9.7 20.9 0.00 0.00 0.00 64 1010.8
20260510080531 7 40 8.0 20.9 0.00 0.00 0.00 65 1010.7
20260510080043 7 333 8.0 16.1 0.00 0.00 0.00 67 1010.7
20260510075528 7 323 8.0 19.3 0.00 0.00 0.00 67 1010.6
20260510075103 7 20 11.3 19.3 0.00 0.00 0.00 67 1010.5
20260510074527 7 356 9.7 20.9 0.00 0.00 0.00 67 1010.5
20260510074039 7 348 9.7 20.9 0.00 0.00 0.00 67 1010.4
20260510073527 7 303 9.7 20.9 0.00 0.00 0.00 67 1010.2
20260510073033 7 324 6.4 20.9 0.00 0.00 0.00 67 1010.2
20260510072539 7 346 11.3 24.1 0.00 0.00 0.00 67 1010.2
20260510072103 7 330 9.7 24.1 0.00 0.00 0.00 65 1010.0
20260510071033 8 316 8.0 27.4 0.00 0.00 0.00 65 1009.9
20260510070540 8 314 9.7 27.4 0.00 0.00 0.00 65 1009.9
20260510070026 8 331 11.3 20.9 0.00 0.00 0.00 65 1009.8
20260510065558 8 332 8.0 20.9 0.00 0.00 0.00 64 1009.7
20260510065027 8 279 9.7 19.3 0.00 0.00 0.00 65 1009.7
20260510064533 8 321 9.7 17.7 0.00 0.00 0.00 65 1009.7
20260510064026 8 347 8.0 20.9 0.00 0.00 0.00 65 1009.7
20260510063535 8 345 4.8 20.9 0.00 0.00 0.00 64 1009.6
20260510063049 8 283 8.0 25.7 0.00 0.00 0.00 66 1009.7
20260510062532 8 334 6.4 25.7 0.00 0.00 0.00 65 1009.6
20260510062024 8 312 6.4 22.5 0.00 0.00 0.00 64 1009.6
20260510061533 8 20 8.0 22.5 0.00 0.00 0.00 63 1009.5
20260510061055 8 46 8.0 14.5 0.00 0.00 0.00 65 1009.5
20260510060531 8 320 6.4 17.7 0.00 0.00 0.00 65 1009.5
20260510060047 8 329 6.4 17.7 0.00 0.00 0.00 64 1009.4
20260510055530 8 323 9.7 20.9 0.00 0.00 0.00 63 1009.3
20260510055055 8 1 8.0 20.9 0.00 0.00 0.00 63 1009.3
20260510054523 8 1 11.3 19.3 0.00 0.00 0.00 63 1009.2
20260510054036 9 344 4.8 19.3 0.00 0.00 0.00 63 1009.2
20260510053540 9 4 6.4 12.9 0.00 0.00 0.00 62 1009.1
20260510053041 9 314 6.4 16.1 0.00 0.00 0.00 62 1008.9
20260510052529 9 35 4.8 24.1 0.00 0.00 0.00 60 1009.0
20260510052039 9 179 6.4 24.1 0.00 0.00 0.00 60 1008.9
20260510051528 9 4 8.0 22.5 0.00 0.00 0.00 61 1008.8
20260510051039 9 269 4.8 17.7 0.00 0.00 0.00 61 1008.7
20260510050524 9 339 6.4 17.7 0.00 0.00 0.00 60 1008.7
20260510050026 9 343 4.8 19.3 0.00 0.00 0.00 61 1008.6
20260510045600 10 346 4.8 19.3 0.00 0.00 0.00 60 1008.5
20260510045033 10 320 3.2 12.9 0.00 0.00 0.00 60 1008.4
20260510044537 10 298 4.8 19.3 0.00 0.00 0.00 60 1008.4
20260510044040 10 338 4.8 19.3 0.00 0.00 0.00 59 1008.4
20260510043528 10 269 4.8 17.7 0.00 0.00 0.00 60 1008.3
20260510043035 10 6 8.0 20.9 0.00 0.00 0.00 61 1008.3
20260510042522 10 6 8.0 20.9 0.00 0.00 0.00 62 1008.2
20260510042031 10 353 9.7 19.3 0.00 0.00 0.00 62 1008.0
20260510041536 10 317 8.0 17.7 0.00 0.00 0.00 62 1008.0
20260510041027 10 324 8.0 16.1 0.00 0.00 0.00 62 1007.9
20260510040600 10 321 8.0 16.1 0.00 0.00 0.00 62 1007.8
20260510040045 10 344 6.4 16.1 0.00 0.00 0.00 60 1007.8
20260510035540 10 306 6.4 19.3 0.00 0.00 0.00 60 1007.8
20260510035032 11 350 8.0 20.9 0.00 0.00 0.00 59 1007.7
20260510034540 11 21 9.7 20.9 0.00 0.00 0.00 60 1007.6
20260510034028 11 330 6.4 17.7 0.00 0.00 0.00 60 1007.6
20260510033534 11 278 6.4 14.5 0.00 0.00 0.00 59 1007.3
20260510033024 11 298 4.8 20.9 0.00 0.00 0.00 60 1007.3
20260510032532 11 291 6.4 20.9 0.00 0.00 0.00 59 1007.2
20260510032040 11 335 4.8 25.7 0.00 0.00 0.00 59 1007.0
20260510031532 11 341 6.4 25.7 0.00 0.00 0.00 57 1007.0
20260510031027 11 355 6.4 19.3 0.00 0.00 0.00 58 1006.8
20260510030533 11 348 6.4 17.7 0.00 0.00 0.00 60 1006.8
20260510030025 12 338 6.4 19.3 0.00 0.00 0.00 60 1006.8
20260510025533 12 108 6.4 20.9 0.00 0.00 0.00 58 1006.7
20260510025024 12 355 9.7 20.9 0.00 0.00 0.00 59 1006.5
20260510024529 12 349 6.4 22.5 0.00 0.00 0.00 59 1006.4
20260510024041 12 310 4.8 17.7 0.00 0.00 0.00 60 1006.3
20260510023527 12 327 8.0 16.1 0.00 0.00 0.00 60 1006.2
20260510023046 12 330 4.8 14.5 0.00 0.00 0.00 60 1006.0
20260510022533 12 344 8.0 14.5 0.00 0.00 0.00 60 1006.0
20260510022024 12 293 4.8 14.5 0.00 0.00 0.00 60 1005.8
20260510021535 12 307 6.4 11.3 0.00 0.00 0.00 59 1005.8
20260510021023 12 314 4.8 11.3 0.00 0.00 0.00 59 1005.6
20260510020531 12 316 6.4 12.9 0.00 0.00 0.00 59 1005.5
20260510020045 12 295 6.4 12.9 0.00 0.00 0.00 59 1005.5
20260510015554 12 283 4.8 11.3 0.00 0.00 0.00 60 1005.4
20260510015059 12 346 4.8 11.3 0.00 0.00 0.00 60 1005.3
20260510014551 12 303 4.8 11.3 0.00 0.00 0.00 60 1005.2
20260510014039 12 314 4.8 12.9 0.00 0.00 0.00 60 1005.0
20260510013033 12 342 4.8 14.5 0.00 0.00 0.00 60 1004.7
20260510012540 12 301 6.4 14.5 0.00 0.00 0.00 61 1004.6
20260510012118 12 286 6.4 17.7 0.00 0.00 0.00 61 1004.5
20260510011525 12 303 6.4 12.9 0.00 0.00 0.00 61 1004.4
20260510011038 12 326 6.4 17.7 0.00 0.00 0.00 62 1004.3
20260510010524 12 324 6.4 17.7 0.00 0.00 0.00 60 1004.1
20260510010038 12 302 9.7 17.7 0.00 0.00 0.00 61 1004.0
20260510005522 12 274 6.4 16.1 0.00 0.00 0.00 62 1003.8
20260510005035 12 299 8.0 17.7 0.00 0.00 0.00 61 1003.8
20260510004026 13 328 6.4 17.7 0.00 0.00 0.00 62 1003.5
20260510003534 13 346 8.0 17.7 0.00 0.00 0.00 61 1003.5
20260510003026 13 308 8.0 17.7 0.00 0.00 0.00 62 1003.4
20260510002538 13 347 9.7 20.9 0.00 0.00 0.00 62 1003.4
20260510002025 13 338 9.7 20.9 0.00 0.00 0.00 61 1003.3
20260510001533 13 284 9.7 22.5 0.00 0.00 0.00 61 1003.1
20260510001026 13 328 12.9 24.1 0.00 0.00 0.00 61 1003.0
20260510000530 13 299 12.9 22.5 0.00 0.00 0.00 61 1003.0
20260510000041 13 338 8.0 25.7 0.00 0.00 0.00 61 1002.8
20260509235614 13 338 8.0 25.7 0.00 0.00 0.00 59 1002.7
20260509235025 14 319 12.9 25.7 0.00 0.00 0.00 58 1002.5
20260509234535 14 293 12.9 25.7 0.00 0.00 0.00 59 1002.4
20260509234030 14 319 11.3 24.1 0.00 0.00 0.00 59 1002.2
20260509233538 14 293 8.0 24.1 0.00 0.00 0.00 60 1002.1
20260509233026 14 327 11.3 33.8 0.00 0.00 0.00 60 1002.1
20260509232534 14 355 12.9 33.8 0.00 0.00 0.00 61 1002.0
20260509232046 14 342 9.7 29.0 0.00 0.00 0.00 62 1001.9
20260509231530 14 319 11.3 25.7 0.00 0.00 0.00 63 1001.7
20260509231023 14 343 11.3 24.1 0.00 0.00 0.00 65 1001.6
20260509230533 14 20 8.0 20.9 0.00 0.00 0.00 66 1001.5
20260509230026 14 307 11.3 25.7 0.00 0.00 0.00 65 1001.4
20260509225537 14 6 11.3 27.4 0.00 0.00 0.00 64 1001.2
20260509225031 15 331 9.7 27.4 0.00 0.00 0.00 64 1001.2
20260509224540 15 337 9.7 25.7 0.00 0.00 0.00 66 1001.0
20260509224027 15 312 11.3 24.1 0.00 0.00 0.00 65 1000.9
20260509223538 15 348 6.4 19.3 0.00 0.00 0.00 64 1000.8
20260509223055 15 46 8.0 27.4 0.00 0.00 0.00 64 1000.7
20260509222524 16 320 12.9 27.4 0.00 0.00 0.00 61 1000.7
20260509222036 17 306 6.4 30.6 0.00 0.00 0.00 58 1000.4
20260509221542 17 319 12.9 29.0 0.00 0.00 0.00 55 1000.3
20260509221031 16 297 14.5 25.7 0.00 0.00 0.00 58 1000.2
20260509220533 16 306 12.9 25.7 0.00 0.00 0.00 58 1000.1
20260509220025 16 272 9.7 20.9 0.00 0.00 0.00 57 1000.0
20260509215038 17 316 8.0 24.1 0.00 0.00 0.00 60 999.9
20260509214528 17 304 9.7 25.7 0.00 0.00 0.00 58 999.8
20260509214041 17 319 12.9 25.7 0.00 0.00 0.00 57 999.7
20260509213551 17 330 12.9 22.5 0.00 0.00 0.00 55 999.7
20260509213050 17 296 14.5 24.1 0.00 0.00 0.00 57 999.6
20260509212538 17 305 12.9 25.7 0.00 0.00 0.00 56 999.7
20260509212036 17 259 12.9 30.6 0.00 0.00 0.00 56 999.6
20260509211549 17 316 16.1 30.6 0.00 0.00 0.00 54 999.5
20260509211040 18 247 16.1 35.4 0.00 0.00 0.00 56 999.5
20260509210610 18 299 20.9 40.2 0.00 0.00 0.00 53 999.4
20260509210028 18 297 24.1 40.2 0.00 0.00 0.00 54 999.4
20260509205602 18 265 19.3 37.0 0.00 0.00 0.00 52 999.3
20260509205029 18 290 17.7 35.4 0.00 0.00 0.00 55 999.4
20260509204528 18 281 22.5 35.4 0.00 0.00 0.00 58 999.3
20260509204043 17 284 17.7 29.0 0.00 0.00 0.00 60 999.3
20260509203527 17 295 19.3 33.8 0.00 0.00 0.00 63 999.3
20260509203038 17 264 19.3 33.8 0.00 0.00 0.00 57 999.3
20260509202528 17 252 22.5 38.6 0.00 0.00 0.00 58 999.3
20260509202040 17 259 22.5 38.6 0.00 0.00 0.00 62 999.3
20260509201525 17 262 22.5 32.2 0.00 0.00 0.00 65 999.3
20260509201036 17 247 20.9 32.2 0.00 0.00 0.00 66 999.3
20260509200547 17 262 22.5 33.8 0.00 0.00 0.00 67 999.3
20260509200033 17 244 25.7 35.4 0.00 0.00 0.00 67 999.3
20260509195529 17 263 25.7 37.0 0.00 0.00 0.00 67 999.3
20260509195039 17 274 25.7 41.8 0.00 0.00 0.00 68 999.3
20260509194524 16 228 27.4 41.8 0.00 0.00 0.00 70 999.3
20260509194034 16 246 32.2 45.1 0.00 0.00 0.00 71 999.2
20260509193523 16 246 33.8 45.1 0.00 0.00 0.00 73 999.2
20260509193055 16 258 37.0 46.7 0.00 0.00 0.00 74 999.3
20260509192547 16 248 38.6 48.3 0.00 0.00 0.00 74 999.3
20260509192037 16 253 41.8 49.9 0.00 0.00 0.00 74 999.3
20260509191529 16 251 40.2 49.9 0.00 0.00 0.00 75 999.3
20260509191039 16 250 40.2 48.3 0.00 0.00 0.00 73 999.2
20260509190528 16 255 41.8 48.3 0.00 0.00 0.00 73 999.2
20260509190041 16 252 37.0 45.1 0.00 0.00 0.00 72 999.0
20260509185532 16 250 37.0 46.7 0.00 0.00 0.00 73 999.0
20260509185042 16 248 38.6 49.9 0.00 0.00 0.00 73 999.0
20260509184541 16 252 41.8 53.1 0.00 0.00 0.00 74 999.0
20260509184057 16 252 45.1 53.1 0.00 0.00 0.00 70 999.0
20260509183550 16 257 41.8 56.3 0.00 0.00 0.00 70 999.0
20260509183040 16 257 45.1 56.3 0.00 0.00 0.00 70 998.9
20260509182528 16 255 41.8 56.3 0.00 0.00 0.00 68 998.8
20260509182037 16 251 43.5 61.2 0.00 0.00 0.00 68 998.8
20260509181526 15 251 41.8 59.5 0.00 0.00 0.00 68 999.0
20260509181039 15 252 40.2 57.9 0.00 0.00 0.00 67 998.9
20260509180549 15 252 37.0 57.9 0.00 0.00 0.00 67 999.0